Погода Екеже

Погода Екеже : погода сейчас, прогноз погоды и архив. Всё, что Вы хотите узнать о погоде Екеже!

Хотите узнать прогноз погоды Екеже? Тогда Вам сюда: Погода Екеже

Поиск расширенной информации на нашем сайте:

Другие новости

Новости СМИ2

Главная страница сайта

Новости сайта

03.07.2017

Напоминаем, что на нашем специализированном сайте Метеоцентр.Азия вы можете получить высокодетализированные автоматические прогнозы погоды по пунктам России, СНГ и мира в авиационном формате (включающие направление и скорость ветра, видимость, явления погоды, количество и форму облачности, нижнюю и верхнюю границу облачности).


Погода Екеже - сегодня

Время (UTC), дата Ветер
(°,м/с) 
Видим.   Явления Облачность Т
(°С)
Тd
(°С)
f(%) Тe
(°С)
Pmin
(гПа)
dP
(гПа)
Po
(мм)
O2
(г/м3)
Тmin Tmax R s Состояние
почвы
09 17.02.18 090 (В) 20000 м    8/0 средняя 
[Ac trans]
+6.6 -5.6 41 +6  1030.5  -2.8  767  303           
12 17.02.18 070 (В) 20000 м    8/0 средняя 
[Ac trans]
+7.6 -5 40 +6  1028  -2.4  766  301           
15 17.02.18 070 (В) 20000 м    9/0 средняя 
[Ac trans]
+4.6 -7.6 41 +3  1028.2  0.1  766  304    +8       
18 17.02.18 050 (СВ) 20000 м    ясно 
+1.5 -10.6 40 1029.2  0.9  766  308    +8       
21 17.02.18 050 (СВ) 20000 м    ясно 
+0.2 -10.7 44 -1  1029.6  0.4  767  310           
03 18.02.18 020 (С) 20000 м    ясно 
-3.9 -12.7 50 -3  1027.6  -1.2  765  314           
06 18.02.18 070 (В) 20000 м    ясно 
+0.8 -8.7 49 -2  1026.9  -0.6  765  308  -4.1         
09 18.02.18 070 (В) 20000 м    ясно 
+7.2 -6.7 36 +5  1024.3  -2.5  763  300           
12 18.02.18 070 (В) 20000 м    8/0 верхняя 
[Ci ing]
+9 -7.4 31 +7  1020.8  -3.3  760  297           
15 18.02.18 070 (В) 20000 м    6/0 верхняя 
[Ci ing]
+5.8 -9.4 33 +3  1019.9  -1  760  301          мокрая 
18 18.02.18 070 (В) 20000 м    ясно 
+3.8 -10.6 34 +1  1018.2  -1.7  758  302    +9.4       
21 18.02.18 070 (В) 20000 м    ясно 
+2.6 -10.7 37 1017.9  -0.3  758  304           
00 19.02.18 070 (В) 20000 м    ясно 
+1.8 -11.1 38 1017.7  -0.2  758  304           
03 19.02.18 070 (В) 20000 м    9/9 600 м кучево-дожд. 
[Cb cap]
+2 -8.7 45 +1  1016.1  -1.7  757  304           
06 19.02.18 090 (В) 20000 м    10/10 600 м 
[Ac As]
+3.2 +0 79 +3  1017.4  1.4  758  302  +1.6         
09 19.02.18 090 (В) 20000 м    10/10 600 м 
[Ac As]
+6 -5.3 44 +7  1016.1  -1.3  757  299           
12 19.02.18 тихо ()   20000 м    10/10 600 м кучево-дожд. 
[Cb cap]
+7.2 -3.8 45 +7  1014.8  -1.3  756  297           
15 19.02.18 тихо ()   20000 м    10/10 600 м кучево-дожд. 
[Cb cap]
+6 -4.9 45 +6  1016.3  1.5  757  299    +7.6       
18 19.02.18 270 (З) 20000 м    9/9 100 м кучево-дожд. 
[Cb cap]
+4.8 -5.5 47 +4  1017.3  758  301  -99.7        полностью
покрыта
пылью 
21 19.02.18 270 (З) 20000 м    9/9 600 м кучево-дожд. 
[Cb cap]
+3.6 -5 53 +4  1017.3  758  302           
00 20.02.18 тихо ()   20000 м    9/9 600 м кучево-дожд. 
[Cb cap]
+2.8 -4.9 57 +3  1017.1  -0.2  758  303           
03 20.02.18 тихо ()   20000 м    9/9 600 м кучево-дожд. 
[Cb cap]
-5.5 -5.9 97 -6  1031.4  1.1  768  317           
06 20.02.18 230 (ЮЗ) 20000 м    9/9 600 м 
[Sc]
+1.5 -2.6 74 -1  1029.3  1.5  767  307  -5.1         
09 20.02.18 250 (З) 20000 м    9/9 600 м 
[Sc]
+6.8 +1 66 +5  1018.7  -0.4  759  298           
12 20.02.18 250 (З) 20000 м    9/9 600 м 
[Sc]
+7 +7.1 100 +6  1018.5  -0.2  759  297           
Время (UTC), дата Ветер
(°,м/с) 
Видим.   Явления Облачность Т
(°С)
Тd
(°С)
f(%) Тe
(°С)
Pmin
(гПа)
dP
(гПа)
Po
(мм)
O2
(г/м3)
Тmin Tmax R s Состояние
почвы

Для получения пояснительной информации подведите курсор к названию столбца.

ПОГОДА Екеже - архив

Всё, что Вы хотите узнать о погоде Екеже - удобно и подробно!

Выберите нужную дату (начиная с 1 января 2015* года) и нажмите кнопку "Найти".
Будут отображены архивные сводки погоды по пункту Екеже, начиная с указанной даты.


Отображать данные в формате CSV (для использования в таблицах Excel)


Внимание! Наш архив погоды предназначен исключительно для личного некоммерческого использования в познавательных целях. Если Вам необходимы официальные справки о состоянии погоды (для производственных, юридических, коммерческих и т.п. целей), обращайтесь в органы Росгидромета.

*Примечание: данная дата относится к архиву по метеостанциям СССР (Россия, СНГ, Балтия).
Архив по метеостанциям Зарубежной Европы и Азии (кроме Китая) хранится 10 дней, по другим регионам земного шара (Китай, Африка, Америка, Австралия, Океания) - 1 день.

Екеже - район местоположения метеостанции


Название, широта, долгота, высота метеостанции:
Екеже 41°ш. 57.8°д. 308 м над ур. моря [Туркменистан]

Дополнительная информация

В oтличие oт бoльшинства пoгoдных сайтoв мы публикуем пoдрoбную метеoинфoрмацию в детальнoм прoфессиoнальнoм фoрмате.

Характеристики температуры и влажнoсти вoздуха измеряются на высoте 2 м в тени вдали oт зданий и деревьев.
Скoрoсть ветра измеряется на высoте 10 м (на урoвне рoста челoвека скoрoсть ветра ниже в 1.5-2 раза). Если метеoстанция нахoдится в гoрoде или в лесу, тo скoрoсть ветра занижена на 2-4 м/с пo сравнению с oткрытым местoм. Скoрoсть ветра над акватoриями крупных рек и oзёр, а также на вершинах хoлмoв на 2-5 м/с выше, чем в oбычных услoвиях.
Атмoсфернoе давление в разных тoчках местнoсти мoжет значительнo oтличаться oт давления на метеoстанции, в зависимoсти oт услoвий рельефа (при пoдъёме на 10 м давление пoнижается примернo на 1 мм рт.ст.).